Weather Roundup
Issued by NWS Chicago, IL

Home | Current Version | Previous Version | Text Only | Print | Product List | Glossary On
Versions: 1 2 3 4 5 6 7 8 9 10 11 12 13 14 15 16 17 18 19 20 21 22 23 24 25 26 27 28 29 30 31 32 33 34 35 36 37 38 39 40 41 42 43 44 45 46 47 48 49 50
000
NZUS59 KLOT 310310
HRRLOT

CHICAGO AREA WEATHER ROUNDUP
NATIONAL WEATHER SERVICE CHICAGO/ROMEOVILLE IL
1000 PM CDT WED JUL 30 2014

NOTE: "FAIR" INDICATES FEW OR NO CLOUDS BELOW 12,000 FEET WITH NO
SIGNIFICANT WEATHER AND/OR OBSTRUCTIONS TO VISIBILITY.

* THESE STATIONS ARE NOT UNDER NWS QUALITY CONTROL. THEY ALSO MAY NOT
  REPORT WEATHER SUCH AS PRECIPITATION OR FOG.

ILZ005-006-012>014-019>023-310400-
NORTHEAST ILLINOIS

CITY           SKY/WX    TMP DP  RH WIND       PRES   REMARKS
OHARE          PTCLDY    66  55  67 E5        30.03R
MIDWAY         PTCLDY    67  59  75 E5        30.04R
AURORA         CLEAR     62  58  86 W6        30.04R
LANSING*       CLEAR     63  57  80 CALM      30.04S
JOLIET*        CLEAR     65  58  77 CALM      30.04R
WAUKEGAN       CLEAR     57  54  89 CALM      30.03R
DUPAGE AIRPORT CLEAR     65  58  78 E3        30.03R
WHEELING       CLEAR     64  56  75 SE5       30.05R
KANKAKEE*      CLEAR     66  61  85 CALM      30.05R
MORRIS*        CLEAR     66  62  85 W3        30.03S
LEWIS AIRPORT* CLEAR     63  58  81 CALM      30.04S
NORTHERLY IS     N/A     64  60  87 E3          N/A
$$

WIZ051-052-058>065-066-070>072-310400-
SOUTHEAST WISCONSIN

CITY           SKY/WX    TMP DP  RH WIND       PRES   REMARKS
MILWAUKEE      PTCLDY    63  53  70 S7        30.02R
KENOSHA*       CLEAR     60  56  86 S8        30.04R
RACINE*        CLEAR     61  55  81 S7        30.04S
BURLINGTON     CLEAR     56  53  92 CALM      30.03S
WAUKESHA       CLEAR     57  52  82 CALM      30.03S
WEST BEND      PTCLDY    63  52  67 W3        30.01S
$$

INZ001>003-010>013-019-020-310400-
NORTHWEST INDIANA

CITY           SKY/WX    TMP DP  RH WIND       PRES   REMARKS
GARY*          CLEAR     61  59  92 CALM      30.05R FOG
MICHIGAN CITY* NOT AVBL
RENSSELAER*    NOT AVBL
VALPARAISO     CLEAR     60  57  89 CALM      30.05R
$$

LMZ740>746-310400-
SOUTHERN LAKE MICHIGAN

STATION/POSITION TIME  SKY/WX   TEMP WIND        PRES    VSBY
                                AIR  DIR/SP/G
                 (UTC)          (F)  (DEG/KT/KT) (MB)    (MI)
HARRISON CRIB    0300            64  110/  4/  5   N/A
BURNHAM HARBOR   0300            64  100/  2/  4   N/A
CALUMET HARBOR   0300            65   70/  4/  5 1016.0S
BURNS HARBOR     NOT AVBL
MICHIGAN CITY    0300            63   90/  3/  4   N/A
$$

ABBREVIATIONS USED IN REMARKS
   TC - TEMPERATURE IN CELSIUS
  WCI - WIND CHILL INDEX
   HX - HEAT INDEX
  VSB - VISIBILITY
$$



USA.gov is the U.S. government's official web portal to all federal, state and local government web resources and services.